BER394 EDDL-EDDB

Flight info

Callsign BER394
Flight time 0h 56m
Altitude 35000
Route MEVEL4T MEVEL L179 MISRI Z851 ROBEG DCT BATEL T207 OGBER OGBER1R
Aircraft B738/M-SDE2E3FGHIRWXY/LB1

Departure

Time 2026-05-07 08:48
Airport Düsseldorf Airport (EDDL)

Arrival

Time 2026-05-07 09:45
Airport Berlin Brandenburg Airport (EDDB)
Time Latitude Longitude Altitude Speed Heading
2026-05-07 08:33 51.28109 6.76533 129 ft 0 kts 96°
2026-05-07 08:38 51.28111 6.76515 125 ft 4 kts 94°
2026-05-07 08:38 51.28110 6.76473 126 ft 4 kts 82°
2026-05-07 08:39 51.28103 6.76433 125 ft 4 kts 52°
2026-05-07 08:39 51.28088 6.76416 126 ft 1 kts
2026-05-07 08:41 51.28094 6.76416 125 ft 3 kts
2026-05-07 08:41 51.28134 6.76422 125 ft 9 kts
2026-05-07 08:41 51.28215 6.76437 129 ft 13 kts
2026-05-07 08:42 51.28296 6.76492 128 ft 13 kts 352°
2026-05-07 08:42 51.28379 6.76543 125 ft 14 kts 52°
2026-05-07 08:42 51.28419 6.76629 123 ft 16 kts 53°
2026-05-07 08:42 51.28505 6.76811 127 ft 19 kts 53°
2026-05-07 08:43 51.28584 6.76975 127 ft 18 kts 53°
2026-05-07 08:43 51.28661 6.77136 125 ft 19 kts 52°
2026-05-07 08:43 51.28749 6.77323 129 ft 23 kts 52°
2026-05-07 08:43 51.28851 6.77536 126 ft 24 kts 52°
2026-05-07 08:44 51.28947 6.77737 127 ft 23 kts 53°
2026-05-07 08:44 51.29041 6.77935 130 ft 22 kts 52°
2026-05-07 08:44 51.29132 6.78126 133 ft 21 kts 53°
2026-05-07 08:44 51.29230 6.78294 139 ft 21 kts 36°
2026-05-07 08:45 51.29336 6.78417 145 ft 14 kts 36°
2026-05-07 08:45 51.29388 6.78464 148 ft 0 kts 17°
2026-05-07 08:46 51.29389 6.78465 148 ft 3 kts 17°
2026-05-07 08:46 51.29451 6.78462 149 ft 12 kts 339°
2026-05-07 08:47 51.29463 6.78351 148 ft 12 kts 234°
2026-05-07 08:47 51.29427 6.78276 146 ft 8 kts 233°
2026-05-07 08:47 51.29388 6.78195 144 ft 11 kts 232°
2026-05-07 08:47 51.29249 6.77900 138 ft 68 kts 233°
2026-05-07 08:48 51.28803 6.76967 128 ft 146 kts 233°
2026-05-07 08:48 51.28062 6.75483 611 ft 182 kts 233°
2026-05-07 08:48 51.27296 6.73879 1856 ft 179 kts 235°
2026-05-07 08:48 51.26767 6.72105 2616 ft 187 kts 266°
2026-05-07 08:49 51.27050 6.70099 3257 ft 189 kts 307°
2026-05-07 08:49 51.28077 6.68860 3926 ft 190 kts 341°
2026-05-07 08:49 51.29399 6.68520 4497 ft 200 kts
2026-05-07 08:49 51.30886 6.68650 4744 ft 224 kts
2026-05-07 08:50 51.32474 6.68861 5181 ft 242 kts
2026-05-07 08:50 51.34231 6.69075 5704 ft 258 kts
2026-05-07 08:50 51.36047 6.69279 6547 ft 262 kts
2026-05-07 08:50 51.37868 6.69475 7343 ft 266 kts
2026-05-07 08:51 51.39739 6.69620 8163 ft 270 kts
2026-05-07 08:51 51.41620 6.69637 8962 ft 274 kts 360°
2026-05-07 08:51 51.43564 6.69624 9773 ft 279 kts 360°
2026-05-07 08:51 51.45515 6.69611 10407 ft 289 kts 359°
2026-05-07 08:52 51.47599 6.69603 10589 ft 314 kts 360°
2026-05-07 08:52 51.49872 6.69600 10802 ft 336 kts 360°
2026-05-07 08:52 51.52268 6.69602 11319 ft 347 kts 359°
2026-05-07 08:52 51.54681 6.69608 12029 ft 351 kts 359°
2026-05-07 08:53 51.57165 6.69615 12787 ft 355 kts 359°
2026-05-07 08:53 51.59624 6.69731 13480 ft 361 kts
2026-05-07 08:53 51.62014 6.71059 14125 ft 368 kts 29°
2026-05-07 08:53 51.63971 6.73685 14789 ft 373 kts 49°
2026-05-07 08:54 51.65548 6.77055 15468 ft 376 kts 53°
2026-05-07 08:54 51.67069 6.80501 16078 ft 381 kts 53°
2026-05-07 08:54 51.68637 6.84009 16703 ft 385 kts 53°
2026-05-07 08:54 51.70220 6.87489 17348 ft 389 kts 53°
2026-05-07 08:55 51.71826 6.90994 17987 ft 392 kts 53°
2026-05-07 08:55 51.73460 6.94557 18568 ft 396 kts 53°
2026-05-07 08:55 51.75118 6.98178 19117 ft 399 kts 53°
2026-05-07 08:55 51.76758 7.01768 19671 ft 402 kts 53°
2026-05-07 08:56 51.78432 7.05436 20225 ft 405 kts 53°
2026-05-07 08:56 51.80099 7.09098 20763 ft 408 kts 53°
2026-05-07 08:56 51.81794 7.12826 21291 ft 411 kts 53°
2026-05-07 08:56 51.83496 7.16572 21815 ft 414 kts 53°
2026-05-07 08:57 51.85199 7.20330 22323 ft 417 kts 53°
2026-05-07 08:57 51.86771 7.24299 22811 ft 421 kts 60°
2026-05-07 08:57 51.88133 7.28518 23308 ft 424 kts 63°
2026-05-07 08:57 51.89432 7.32804 23761 ft 427 kts 63°
2026-05-07 08:58 51.90761 7.37122 24156 ft 430 kts 62°
2026-05-07 08:58 51.92127 7.41410 24586 ft 432 kts 62°
2026-05-07 08:58 51.93534 7.45762 25009 ft 434 kts 62°
2026-05-07 08:58 51.94758 7.50270 25397 ft 437 kts 71°
2026-05-07 08:59 51.95606 7.54952 25795 ft 439 kts 75°
2026-05-07 08:59 51.96395 7.59765 26176 ft 441 kts 75°
2026-05-07 08:59 51.97170 7.64552 26538 ft 443 kts 75°
2026-05-07 08:59 51.97971 7.69414 26915 ft 445 kts 75°
2026-05-07 09:00 51.98782 7.74240 27299 ft 447 kts 74°
2026-05-07 09:00 51.99335 7.77492 27559 ft 448 kts 74°
2026-05-07 09:00 52.00442 7.83995 28026 ft 450 kts 74°
2026-05-07 09:00 52.00994 7.87253 28251 ft 451 kts 75°
2026-05-07 09:01 52.02061 7.93825 28702 ft 454 kts 75°
2026-05-07 09:01 52.02587 7.97148 28920 ft 455 kts 75°
2026-05-07 09:01 52.03384 8.02154 29245 ft 457 kts 75°
2026-05-07 09:01 52.04215 8.07175 29565 ft 458 kts 75°
2026-05-07 09:02 52.05054 8.12151 29855 ft 460 kts 75°
2026-05-07 09:02 52.05906 8.17203 30125 ft 462 kts 75°
2026-05-07 09:02 52.06742 8.22198 30362 ft 464 kts 75°
2026-05-07 09:02 52.07588 8.27301 30585 ft 466 kts 75°
2026-05-07 09:03 52.08423 8.32401 30837 ft 466 kts 75°
2026-05-07 09:03 52.09240 8.37469 31154 ft 465 kts 75°
2026-05-07 09:03 52.10048 8.42521 31497 ft 464 kts 75°
2026-05-07 09:03 52.10864 8.47631 31791 ft 464 kts 75°
2026-05-07 09:04 52.11670 8.52692 32070 ft 464 kts 75°
2026-05-07 09:04 52.12483 8.57809 32357 ft 464 kts 75°
2026-05-07 09:04 52.13284 8.62852 32640 ft 464 kts 75°
2026-05-07 09:04 52.14086 8.67917 32923 ft 464 kts 75°
2026-05-07 09:05 52.14893 8.73030 33214 ft 464 kts 76°
2026-05-07 09:05 52.15687 8.78079 33474 ft 464 kts 76°
2026-05-07 09:05 52.16488 8.83189 33739 ft 464 kts 76°
2026-05-07 09:05 52.17282 8.88256 33999 ft 464 kts 76°
2026-05-07 09:06 52.18079 8.93366 34214 ft 464 kts 76°
2026-05-07 09:06 52.18885 8.98512 34377 ft 466 kts 76°
2026-05-07 09:06 52.19695 9.03608 34526 ft 467 kts 76°
2026-05-07 09:06 52.20509 9.08707 34708 ft 468 kts 76°
2026-05-07 09:07 52.21330 9.13868 34911 ft 468 kts 76°
2026-05-07 09:07 52.22139 9.18973 35020 ft 470 kts 76°
2026-05-07 09:07 52.23787 9.29397 35020 ft 476 kts 75°
2026-05-07 09:08 52.25618 9.39794 35021 ft 478 kts 73°
2026-05-07 09:08 52.27523 9.50209 35016 ft 479 kts 74°
2026-05-07 09:09 52.29404 9.60671 35023 ft 479 kts 74°
2026-05-07 09:09 52.31250 9.71119 35013 ft 479 kts 74°
2026-05-07 09:10 52.33078 9.81564 35017 ft 478 kts 75°
2026-05-07 09:10 52.34895 9.92007 35018 ft 478 kts 75°
2026-05-07 09:11 52.36696 10.02416 35015 ft 477 kts 75°
2026-05-07 09:11 52.38503 10.12917 35018 ft 477 kts 75°
2026-05-07 09:12 52.40287 10.23347 35012 ft 477 kts 75°
2026-05-07 09:12 52.42053 10.33728 34995 ft 464 kts 75°
2026-05-07 09:13 52.43743 10.43725 35012 ft 452 kts 75°
2026-05-07 09:13 52.45421 10.53713 34438 ft 460 kts 75°
2026-05-07 09:14 52.46270 10.58790 33859 ft 459 kts 75°
2026-05-07 09:14 52.47106 10.63798 33175 ft 460 kts 75°
2026-05-07 09:14 52.47952 10.68885 32513 ft 459 kts 76°
2026-05-07 09:14 52.48794 10.73959 31849 ft 459 kts 76°
2026-05-07 09:15 52.49621 10.78963 31216 ft 459 kts 76°
2026-05-07 09:15 52.50451 10.83991 30784 ft 454 kts 76°
2026-05-07 09:15 52.51273 10.88993 30364 ft 448 kts 76°
2026-05-07 09:15 52.52084 10.93938 29782 ft 446 kts 76°
2026-05-07 09:16 52.52877 10.98782 29288 ft 440 kts 76°
2026-05-07 09:16 52.53665 11.03615 28809 ft 435 kts 76°
2026-05-07 09:16 52.54425 11.08368 28337 ft 429 kts 78°
2026-05-07 09:16 52.54876 11.13203 27856 ft 423 kts 88°
2026-05-07 09:17 52.55000 11.17957 27409 ft 418 kts 90°
2026-05-07 09:17 52.55085 11.22759 26928 ft 414 kts 90°
2026-05-07 09:17 52.55161 11.27423 26484 ft 410 kts 90°
2026-05-07 09:17 52.55243 11.32108 26025 ft 407 kts 90°
2026-05-07 09:18 52.55332 11.36708 25580 ft 404 kts 90°
2026-05-07 09:18 52.55426 11.41333 25133 ft 401 kts 90°
2026-05-07 09:18 52.55521 11.45865 24701 ft 398 kts 89°
2026-05-07 09:18 52.55617 11.50407 24264 ft 396 kts 89°
2026-05-07 09:19 52.55712 11.54937 23824 ft 394 kts 89°
2026-05-07 09:19 52.55803 11.59386 23357 ft 392 kts 89°
2026-05-07 09:19 52.55894 11.63880 22863 ft 390 kts 89°
2026-05-07 09:19 52.55983 11.68339 22396 ft 387 kts 90°
2026-05-07 09:20 52.56067 11.72701 21975 ft 383 kts 90°
2026-05-07 09:20 52.56151 11.77094 21532 ft 381 kts 90°
2026-05-07 09:20 52.56232 11.81414 21106 ft 378 kts 90°
2026-05-07 09:20 52.56310 11.85685 20688 ft 375 kts 90°
2026-05-07 09:21 52.56387 11.89983 20264 ft 373 kts 90°
2026-05-07 09:21 52.56461 11.94192 19857 ft 371 kts 90°
2026-05-07 09:21 52.56535 11.98444 19441 ft 369 kts 90°
2026-05-07 09:21 52.56607 12.02659 19034 ft 367 kts 90°
2026-05-07 09:22 52.56675 12.06817 18626 ft 365 kts 90°
2026-05-07 09:22 52.56723 12.10963 18214 ft 364 kts 91°
2026-05-07 09:22 52.56721 12.15137 17745 ft 362 kts 92°
2026-05-07 09:22 52.56711 12.19223 17310 ft 360 kts 91°
2026-05-07 09:23 52.56725 12.23368 16888 ft 358 kts 88°
2026-05-07 09:23 52.57021 12.27388 16491 ft 356 kts 82°
2026-05-07 09:23 52.57422 12.31411 16091 ft 354 kts 81°
2026-05-07 09:23 52.57827 12.35361 15697 ft 352 kts 81°
2026-05-07 09:24 52.58229 12.39334 15299 ft 350 kts 81°
2026-05-07 09:24 52.58617 12.43248 14914 ft 348 kts 81°
2026-05-07 09:24 52.58997 12.47149 14524 ft 347 kts 81°
2026-05-07 09:24 52.59373 12.51069 14132 ft 345 kts 81°
2026-05-07 09:25 52.59748 12.54988 13728 ft 344 kts 81°
2026-05-07 09:25 52.60114 12.58837 13295 ft 343 kts 81°
2026-05-07 09:25 52.60483 12.62732 12876 ft 341 kts 81°
2026-05-07 09:25 52.60840 12.66541 12484 ft 338 kts 82°
2026-05-07 09:26 52.60768 12.70345 12090 ft 337 kts 104°
2026-05-07 09:26 52.59808 12.73818 11848 ft 331 kts 125°
2026-05-07 09:26 52.58213 12.76504 11638 ft 327 kts 142°
2026-05-07 09:26 52.56381 12.78704 11441 ft 330 kts 144°
2026-05-07 09:27 52.54495 12.80912 11220 ft 334 kts 144°
2026-05-07 09:27 52.52603 12.83158 11000 ft 334 kts 144°
2026-05-07 09:27 52.48915 12.87595 10556 ft 323 kts 143°
2026-05-07 09:28 52.47132 12.89750 10352 ft 316 kts 143°
2026-05-07 09:28 52.45371 12.91876 10148 ft 309 kts 143°
2026-05-07 09:28 52.43669 12.93927 9965 ft 303 kts 143°
2026-05-07 09:28 52.42088 12.95832 9953 ft 291 kts 143°
2026-05-07 09:29 52.40486 12.97760 9700 ft 288 kts 143°
2026-05-07 09:29 52.38896 12.99666 9439 ft 279 kts 144°
2026-05-07 09:29 52.37162 13.00952 9206 ft 269 kts 169°
2026-05-07 09:29 52.35364 13.00816 9015 ft 259 kts 199°
2026-05-07 09:30 52.33838 12.99333 8861 ft 254 kts 226°
2026-05-07 09:30 52.32852 12.96999 8707 ft 252 kts 249°
2026-05-07 09:30 52.32437 12.94217 8558 ft 251 kts 263°
2026-05-07 09:30 52.32093 12.91434 8373 ft 254 kts 251°
2026-05-07 09:31 52.31437 12.88719 8227 ft 256 kts 248°
2026-05-07 09:31 52.30749 12.86048 8057 ft 258 kts 248°
2026-05-07 09:31 52.30061 12.83336 7881 ft 256 kts 248°
2026-05-07 09:31 52.29393 12.80683 7700 ft 253 kts 248°
2026-05-07 09:32 52.28736 12.78031 7541 ft 250 kts 249°
2026-05-07 09:32 52.28089 12.75400 7386 ft 249 kts 248°
2026-05-07 09:32 52.27448 12.72793 7225 ft 249 kts 249°
2026-05-07 09:32 52.26804 12.70169 7069 ft 248 kts 248°
2026-05-07 09:33 52.26162 12.67573 6908 ft 248 kts 245°
2026-05-07 09:33 52.25116 12.65354 6722 ft 247 kts 213°
2026-05-07 09:33 52.23530 12.64381 6576 ft 241 kts 181°
2026-05-07 09:33 52.21906 12.64719 6447 ft 237 kts 160°
2026-05-07 09:34 52.20356 12.65660 6290 ft 237 kts 155°
2026-05-07 09:34 52.18851 12.66693 6119 ft 238 kts 150°
2026-05-07 09:34 52.17627 12.68467 5940 ft 234 kts 119°
2026-05-07 09:34 52.17088 12.70904 5809 ft 231 kts 98°
2026-05-07 09:35 52.16950 12.73528 5650 ft 232 kts 85°
2026-05-07 09:35 52.17382 12.76033 5513 ft 233 kts 68°
2026-05-07 09:35 52.18009 12.78504 5343 ft 235 kts 68°
2026-05-07 09:35 52.18623 12.80946 5167 ft 235 kts 68°
2026-05-07 09:36 52.19239 12.83424 5011 ft 233 kts 68°
2026-05-07 09:36 52.19862 12.85822 4827 ft 231 kts 64°
2026-05-07 09:36 52.20605 12.88148 4672 ft 228 kts 64°
2026-05-07 09:36 52.21276 12.90465 4519 ft 226 kts 67°
2026-05-07 09:37 52.21873 12.92787 4450 ft 220 kts 68°
2026-05-07 09:37 52.22439 12.95131 4195 ft 222 kts 69°
2026-05-07 09:37 52.22994 12.97489 4032 ft 223 kts 69°
2026-05-07 09:37 52.23547 12.99866 4006 ft 226 kts 69°
2026-05-07 09:38 52.24105 13.02267 3980 ft 223 kts 69°
2026-05-07 09:38 52.24647 13.04603 3990 ft 221 kts 69°
2026-05-07 09:38 52.25190 13.06943 3983 ft 222 kts 69°
2026-05-07 09:38 52.25741 13.09310 4004 ft 223 kts 69°
2026-05-07 09:39 52.26291 13.11674 4000 ft 225 kts 69°
2026-05-07 09:39 52.26851 13.14074 3992 ft 225 kts 69°
2026-05-07 09:39 52.27410 13.16471 3981 ft 224 kts 69°
2026-05-07 09:39 52.27958 13.18816 3826 ft 221 kts 69°
2026-05-07 09:40 52.28493 13.21102 3559 ft 211 kts 69°
2026-05-07 09:40 52.29005 13.23291 3286 ft 200 kts 69°
2026-05-07 09:40 52.29483 13.25334 3020 ft 188 kts 69°
2026-05-07 09:40 52.29938 13.27276 2769 ft 177 kts 69°
2026-05-07 09:41 52.30369 13.29112 2525 ft 166 kts 68°
2026-05-07 09:41 52.30762 13.30790 2295 ft 154 kts 68°
2026-05-07 09:41 52.31104 13.32245 2099 ft 141 kts 68°
2026-05-07 09:41 52.31448 13.33712 1953 ft 135 kts 67°
2026-05-07 09:42 52.31787 13.35152 1749 ft 134 kts 67°
2026-05-07 09:42 52.32125 13.36584 1553 ft 138 kts 68°
2026-05-07 09:42 52.32471 13.38058 1355 ft 139 kts 67°
2026-05-07 09:42 52.32819 13.39532 1155 ft 138 kts 67°
2026-05-07 09:43 52.33160 13.40978 959 ft 138 kts 68°
2026-05-07 09:43 52.33505 13.42444 760 ft 138 kts 68°
2026-05-07 09:43 52.33848 13.43896 580 ft 137 kts 68°
2026-05-07 09:43 52.34192 13.45356 396 ft 136 kts 68°
2026-05-07 09:44 52.34533 13.46785 219 ft 133 kts 68°
2026-05-07 09:44 52.34836 13.48108 162 ft 113 kts 67°
2026-05-07 09:44 52.35087 13.49143 157 ft 82 kts 69°
2026-05-07 09:44 52.35263 13.49868 155 ft 60 kts 68°
2026-05-07 09:45 52.35381 13.50355 156 ft 32 kts 62°
2026-05-07 09:45 52.35512 13.50599 155 ft 25 kts 39°
2026-05-07 09:45 52.35621 13.50743 151 ft 17 kts 38°
2026-05-07 09:45 52.35716 13.50839 150 ft 15 kts
2026-05-07 09:46 52.35815 13.50798 150 ft 13 kts 339°
2026-05-07 09:46 52.35890 13.50751 152 ft 11 kts 339°
2026-05-07 09:46 52.35956 13.50711 152 ft 10 kts 340°
2026-05-07 09:46 52.36014 13.50674 152 ft 9 kts 338°
2026-05-07 09:47 52.36067 13.50639 152 ft 8 kts 338°
2026-05-07 09:47 52.36113 13.50610 152 ft 7 kts 339°
2026-05-07 09:47 52.36159 13.50582 152 ft 7 kts 340°
2026-05-07 09:47 52.36206 13.50552 152 ft 7 kts 338°
2026-05-07 09:48 52.36251 13.50523 152 ft 7 kts 339°
2026-05-07 09:48 52.36294 13.50523 152 ft 7 kts 47°
2026-05-07 09:48 52.36311 13.50593 153 ft 5 kts 69°
2026-05-07 09:48 52.36318 13.50624 153 ft 2 kts 69°
2026-05-07 09:49 52.36321 13.50637 154 ft 0 kts 69°